This demonstration page uses our WeatherBlox Daily Observations layout. Learn more.

39.92423, -83.80882

Hourly Observations for September 14, 2016

Temp ( °F °C ) Dew Point ( °F °C ) Humidity (%) Winds ( mph kmh ) Pressure ( in mb ) Visibility ( mi km ) Precip ( " mm )
12:56 am 00:56 Clear 59 15 56 13.3 90 90 Calm 30.12 1020 10 16.0934 0 0
1:56 am 01:56 Clear 58 14.4 56 13.3 93 93 Calm 30.12 1020 10 16.0934 0 0
2:56 am 02:56 Clear 59 15 57 13.9 93 93 W 3 6 30.13 1020 10 16.0934 0 0
3:56 am 03:56 Clear 60 15.6 57 13.9 90 90 WSW 5 7 30.12 1020 10 16.0934 0 0
4:56 am 04:56 Clear 57 13.9 56 13.3 96 96 WSW 3 6 30.13 1020 10 16.0934 0 0
5:56 am 05:56 Clear 57 13.9 56 13.3 96 96 Calm 30.15 1021 10 16.0934 0 0
6:56 am 06:56 Clear 58 14.4 56 13.3 93 93 Calm 30.16 1021 9 14.48406 0 0
7:56 am 07:56 Sunny 59 15 58 14.4 96 96 SSE 3 6 30.16 1021 10 16.0934 0 0
8:56 am 08:56 Sunny 67 19.4 62 16.7 84 84 SW 5 7 30.17 1022 10 16.0934 0 0
9:56 am 09:56 Sunny 72 22.2 63 17.2 73 73 Calm 30.18 1022 10 16.0934 0 0
10:56 am 10:56 Partly Cloudy 76 24.4 64 17.8 67 67 Calm 30.19 1022 10 16.0934 0 0
11:56 am 11:56 Partly Cloudy 77 25 65 18.3 66 66 W 3 6 30.18 1022 10 16.0934 0 0
12:56 pm 12:56 Cloudy 78 25.6 67 19.4 69 69 WNW 6 9 30.18 1022 10 16.0934 0 0.0254
1:56 pm 13:56 Cloudy 74 23.3 69 20.6 85 85 NW 7 11 30.18 1022 10 16.0934 0.02 0.508
2:56 pm 14:56 Cloudy 78 25.6 68 20 71 71 VRB 5 7 30.16 1021 10 16.0934 0.01 0.254
3:56 pm 15:56 Mostly Cloudy 78 25.6 68 20 71 71 N 6 9 30.14 1021 10 16.0934 0 0
4:56 pm 16:56 Mostly Sunny 79 26.1 68 20 69 69 N 10 17 30.13 1020 10 16.0934 0 0
5:56 pm 17:56 Mostly Sunny 76 24.4 66 18.9 72 72 N 9 15 30.14 1021 10 16.0934 0 0
6:56 pm 18:56 Cloudy 72 22.2 65 18.3 79 79 NNE 10 17 30.16 1021 10 16.0934 0 0
7:56 pm 19:56 Clear 69 20.6 65 18.3 87 87 NNE 13 20 30.16 1021 10 16.0934 0 0
8:25 pm 20:25 Mostly Cloudy 68 20 64 18 88 88 NE 9 15 30.15 1021 10 16.0934 0 0
8:56 pm 20:56 Mostly Cloudy 66 18.9 64 17.8 93 93 NE 8 13 30.18 1022 10 16.0934 0 0
9:04 pm 21:04 Mostly Clear 66 19 63 17 88 88 NE 14 22 30.21 1023 10 16.0934 0 0
9:56 pm 21:56 Clear 65 18.3 61 16.1 87 87 NE 9 15 30.19 1023 10 16.0934 0 0
10:56 pm 22:56 Clear 63 17.2 60 15.6 90 90 ENE 8 13 30.2 1023 10 16.0934 0 0
11:56 pm 23:56 Clear 63 17.2 60 15.6 90 90 E 7 11 30.21 1023 10 16.0934 0 0

Powered by AerisWeather